GW7292 Weather Reports


Display with metric or nautical units.
time (UTC)temp
F
wind
direction
speed
MPH
gust
MPH
rain 1hr
in
rain 24hr
in
rain mn
in
humidity
%
barometer
mb
20260504213346 79 248 1.0 2.0 0.00 0.00 0.00 33 1015.0
20260504212844 80 248 0.0 3.0 0.00 0.00 0.00 32 1014.6
20260504212340 80 239 1.0 3.0 0.00 0.00 0.00 33 1015.0
20260504211838 80 241 0.0 0.0 0.00 0.00 0.00 34 1015.0
20260504211334 80 241 0.0 0.0 0.00 0.00 0.00 33 1015.0
20260504210831 81 162 0.0 2.0 0.00 0.00 0.00 33 1015.0
20260504210328 81 187 2.0 5.0 0.00 0.00 0.00 34 1015.0
20260504205825 81 226 0.0 0.0 0.00 0.00 0.00 33 1015.0
20260504205323 80 303 0.0 0.0 0.00 0.00 0.00 33 1015.0
20260504204821 81 313 2.0 6.0 0.00 0.00 0.00 34 1015.0
20260504204319 81 148 1.0 3.0 0.00 0.00 0.00 34 1015.0
20260504203818 82 118 2.0 4.0 0.00 0.00 0.00 34 1015.0
20260504203315 82 193 0.0 2.0 0.00 0.00 0.00 36 1015.0
20260504202810 80 46 0.0 0.0 0.00 0.00 0.00 34 1015.3
20260504202308 80 330 1.0 3.0 0.00 0.00 0.00 34 1015.0
20260504201804 81 198 3.0 6.0 0.00 0.00 0.00 34 1015.3
20260504185627 78 113 0.0 5.0 0.00 0.00 0.00 38 1016.4
20260504185124 78 113 0.0 5.0 0.00 0.00 0.00 38 1016.4
20260504184620 78 204 2.0 6.0 0.00 0.00 0.00 37 1016.4
20260504184115 78 263 1.0 4.0 0.00 0.00 0.00 37 1016.8
20260504183613 79 273 2.0 4.0 0.00 0.00 0.00 36 1016.8
20260504183110 80 182 1.0 4.0 0.00 0.00 0.00 34 1016.8
20260504182607 80 231 2.0 4.0 0.00 0.00 0.00 37 1016.8
20260504182105 80 134 0.0 0.0 0.00 0.00 0.00 37 1016.8
20260504181602 80 135 1.0 3.0 0.00 0.00 0.00 38 1016.8
20260504181100 80 128 0.0 0.0 0.00 0.00 0.00 38 1017.1
20260504180558 79 111 0.0 0.0 0.00 0.00 0.00 35 1016.8
20260504180057 79 130 1.0 3.0 0.00 0.00 0.00 37 1017.1
20260504175554 79 310 0.0 0.0 0.00 0.00 0.00 38 1017.1
20260504175050 79 261 0.0 0.0 0.00 0.00 0.00 38 1017.1
20260504174549 79 311 1.0 4.0 0.00 0.00 0.00 38 1017.4
20260504174045 79 155 1.0 3.0 0.00 0.00 0.00 38 1017.4
20260504173542 79 154 0.0 0.0 0.00 0.00 0.00 38 1017.4
20260504173040 79 121 1.0 3.0 0.00 0.00 0.00 38 1017.4
20260504172535 78 93 0.0 0.0 0.00 0.00 0.00 38 1017.4
20260504172032 78 125 2.0 6.0 0.00 0.00 0.00 38 1017.4
20260504171529 79 109 1.0 4.0 0.00 0.00 0.00 38 1017.4
20260504171026 78 336 0.0 0.0 0.00 0.00 0.00 40 1017.4
20260504170522 78 342 0.0 2.0 0.00 0.00 0.00 39 1017.8
20260504160442 76 283 2.0 4.0 0.00 0.00 0.00 43 1018.4
20260504150906 71 84 3.0 4.0 0.00 0.00 0.00 48 1018.4
20260504150403 71 221 2.0 3.0 0.00 0.00 0.00 48 1018.4
20260504141333 68 266 0.0 0.0 0.00 0.00 0.00 53 1019.1
20260504140829 67 266 0.0 0.0 0.00 0.00 0.00 53 1019.1
20260504140325 67 119 0.0 3.0 0.00 0.00 0.00 54 1019.1
20260504130754 58 59 0.0 0.0 0.00 0.00 0.00 83 1019.5
20260504130250 58 59 0.0 0.0 0.00 0.00 0.00 83 1019.5
20260504120214 48 59 0.0 0.0 0.00 0.00 0.00 98 1019.1
20260504110641 44 59 0.0 0.0 0.00 0.00 0.00 100 1018.4
20260504110137 44 59 0.0 0.0 0.00 0.00 0.00 100 1018.4
20260504100603 45 59 0.0 0.0 0.00 0.00 0.00 99 1018.4
20260504081956 45 59 0.0 0.0 0.00 0.00 0.00 98 1018.4
20260504081454 45 59 0.0 0.0 0.00 0.00 0.00 98 1018.4
20260504080949 45 59 0.0 0.0 0.00 0.00 0.00 98 1018.4
20260504080446 45 59 0.0 0.0 0.00 0.00 0.00 98 1018.4
20260504050259 48 59 0.0 0.0 0.00 0.00 0.00 96 1019.5
20260504045757 48 59 0.0 0.0 0.00 0.00 0.00 95 1019.5
20260504045256 48 59 0.0 0.0 0.00 0.00 0.00 95 1019.5
20260504044754 48 59 0.0 0.0 0.00 0.00 0.00 94 1019.8
20260504044252 48 59 0.0 0.0 0.00 0.00 0.00 96 1019.8
20260504043748 48 59 0.0 0.0 0.00 0.00 0.00 95 1019.8
20260504043245 48 59 0.0 0.0 0.00 0.00 0.00 95 1019.8
20260504042743 48 59 0.0 0.0 0.00 0.00 0.00 94 1019.8
20260504042239 49 59 0.0 0.0 0.00 0.00 0.00 93 1020.1
20260504041736 49 59 0.0 0.0 0.00 0.00 0.00 94 1020.1
20260504041232 49 59 0.0 0.0 0.00 0.00 0.00 94 1020.1
20260504040728 49 59 0.0 0.0 0.00 0.00 0.00 93 1019.8
20260504040226 49 59 0.0 0.0 0.00 0.00 0.00 93 1020.1
20260504035721 49 59 0.0 0.0 0.00 0.00 0.00 94 1019.8
20260504035219 49 59 0.0 0.0 0.00 0.00 0.00 94 1020.1
20260504034716 49 59 0.0 0.0 0.00 0.00 0.00 93 1020.1
20260504034214 49 59 0.0 0.0 0.00 0.00 0.00 93 1020.1
20260504033711 50 59 0.0 0.0 0.00 0.00 0.00 93 1020.1
20260504033208 50 59 0.0 0.0 0.00 0.00 0.00 92 1020.1
20260504032705 50 59 0.0 0.0 0.00 0.00 0.00 92 1020.1
20260504032202 50 59 0.0 0.0 0.00 0.00 0.00 91 1020.1
20260504031659 50 59 0.0 0.0 0.00 0.00 0.00 91 1020.1
20260504031155 50 59 0.0 0.0 0.00 0.00 0.00 92 1020.1
20260504030652 50 59 0.0 0.0 0.00 0.00 0.00 91 1020.1
20260504030149 51 59 0.0 0.0 0.00 0.00 0.00 91 1020.5
20260504025646 51 59 0.0 0.0 0.00 0.00 0.00 90 1020.1
20260504025142 51 59 0.0 0.0 0.00 0.00 0.00 90 1020.1
20260504024640 51 59 0.0 0.0 0.00 0.00 0.00 90 1020.1
20260504024136 51 59 0.0 0.0 0.00 0.00 0.00 89 1020.1
20260504023633 51 59 0.0 0.0 0.00 0.00 0.00 89 1020.1
20260504023129 51 59 0.0 0.0 0.00 0.00 0.00 88 1020.1
20260504022626 52 59 0.0 0.0 0.00 0.00 0.00 88 1020.1
20260504022121 52 59 0.0 0.0 0.00 0.00 0.00 87 1020.1
20260504021620 52 59 0.0 0.0 0.00 0.00 0.00 85 1020.1
20260504021116 52 59 0.0 0.0 0.00 0.00 0.00 84 1019.8
20260504020613 53 59 0.0 0.0 0.00 0.00 0.00 84 1019.8
20260504020109 53 59 0.0 0.0 0.00 0.00 0.00 83 1019.8
20260504015606 53 59 0.0 0.0 0.00 0.00 0.00 83 1019.8
20260504015102 54 59 0.0 0.0 0.00 0.00 0.00 83 1019.8
20260504014558 54 59 0.0 0.0 0.00 0.00 0.00 82 1019.8
20260504014055 54 59 0.0 0.0 0.00 0.00 0.00 80 1019.5
20260504013553 54 59 0.0 0.0 0.00 0.00 0.00 79 1019.8
20260504013049 55 59 0.0 0.0 0.00 0.00 0.00 78 1019.8
20260504012547 55 59 0.0 0.0 0.00 0.00 0.00 78 1019.5
20260504012045 56 59 0.0 0.0 0.00 0.00 0.00 77 1019.5
20260504011541 56 59 0.0 0.0 0.00 0.00 0.00 76 1019.5
20260504011037 56 59 0.0 0.0 0.00 0.00 0.00 75 1019.5
20260504010533 57 59 0.0 0.0 0.00 0.00 0.00 74 1019.5
20260504010029 57 59 0.0 0.0 0.00 0.00 0.00 74 1019.5
20260504005526 58 59 0.0 0.0 0.00 0.00 0.00 72 1019.5
20260504005024 58 59 0.0 0.0 0.00 0.00 0.00 70 1019.5
20260504004522 59 59 0.0 0.0 0.00 0.00 0.00 66 1019.5
20260504004018 59 59 0.0 0.0 0.00 0.00 0.00 67 1019.5
20260504003514 60 59 0.0 0.0 0.00 0.00 0.00 66 1019.1
20260504003011 60 59 0.0 0.0 0.00 0.00 0.00 58 1019.5
20260504002508 61 59 0.0 0.0 0.00 0.00 0.00 59 1019.1
20260504002006 61 59 0.0 0.0 0.00 0.00 0.00 60 1019.1
20260504001503 62 59 0.0 0.0 0.00 0.00 0.00 54 1019.1
20260504000959 62 59 0.0 0.0 0.00 0.00 0.00 54 1019.1
20260504000457 63 59 0.0 0.0 0.00 0.00 0.00 56 1019.1
20260503235954 63 59 0.0 0.0 0.00 0.00 0.00 52 1019.1
20260503235452 64 59 0.0 0.0 0.00 0.00 0.00 51 1019.1
20260503234948 64 59 0.0 0.0 0.00 0.00 0.00 54 1019.1
20260503234446 65 59 0.0 0.0 0.00 0.00 0.00 49 1019.1
20260503233944 65 59 0.0 0.0 0.00 0.00 0.00 48 1019.1
20260503233440 66 166 0.0 0.0 0.00 0.00 0.00 52 1019.1
20260503232937 66 166 0.0 0.0 0.00 0.00 0.00 50 1019.1
20260503232434 67 166 0.0 0.0 0.00 0.00 0.00 47 1018.8
20260503231932 67 166 0.0 0.0 0.00 0.00 0.00 44 1019.1
20260503231429 68 166 0.0 0.0 0.00 0.00 0.00 43 1018.8
20260503230925 68 166 0.0 0.0 0.00 0.00 0.00 42 1019.1
20260503230422 68 166 0.0 0.0 0.00 0.00 0.00 43 1019.1
20260503225920 69 166 0.0 0.0 0.00 0.00 0.00 41 1019.1
20260503225416 69 166 0.0 0.0 0.00 0.00 0.00 39 1019.1
20260503224912 69 166 0.0 0.0 0.00 0.00 0.00 37 1019.1
20260503224409 70 173 0.0 0.0 0.00 0.00 0.00 37 1019.1
20260503223907 71 173 0.0 0.0 0.00 0.00 0.00 37 1019.1
20260503223404 71 180 0.0 0.0 0.00 0.00 0.00 34 1019.1
20260503222859 72 180 1.0 3.0 0.00 0.00 0.00 33 1019.1
20260503222358 72 271 0.0 0.0 0.00 0.00 0.00 35 1019.1
20260503221856 72 84 0.0 0.0 0.00 0.00 0.00 33 1019.1
20260503221354 72 172 2.0 4.0 0.00 0.00 0.00 32 1019.1
20260503220850 73 154 1.0 3.0 0.00 0.00 0.00 35 1019.1
20260503220347 73 157 0.0 0.0 0.00 0.00 0.00 33 1019.1
20260503215844 73 157 0.0 2.0 0.00 0.00 0.00 36 1019.1
20260503215341 73 280 1.0 4.0 0.00 0.00 0.00 34 1019.1
20260503214838 73 278 0.0 0.0 0.00 0.00 0.00 34 1019.5
20260503214336 73 198 0.0 0.0 0.00 0.00 0.00 31 1019.5
20260503213833 73 183 1.0 3.0 0.00 0.00 0.00 33 1019.5